星链-5997 (STARLINK-5997 )

导读 | 豆包AI

STARLINK-5997是美国SpaceX公司星链(Starlink)项目的卫星,于2023年4月27日发射升空,属于星链星座的V2 Mini卫星,运行在近地轨道。星链项目旨在构建全球卫星互联网,为偏远山区、海洋等传统通信难以覆盖区域提供高速低延迟网络服务,STARLINK-5997的入轨也进一步扩充了星链网络的整体通信容量,助力提升全球网络覆盖能力。

基本信息
目录编号:
56327
目录名称:
STARLINK-5997
国际标识:
2023-058L
轨道中心:
EARTH
卫星名称:
星链-5997
卫星全名:
星链-5997 (STARLINK-5997 )
卫星状态:
在轨 (已飞行1099 天)
发射日期:
2023-04-27 UTC
国别 :
美国 (US)
星等 :
--
轨道信息
数据来源 国际轨道数据 AOE轨道数据
星历时间 2026-04-30T12:45:28+0800
3小时前
查看轨道信息
2026-04-26T17:00:00+0800
3天前
查看轨道信息
半长轴 6927.624km 6927.629km
偏心率 0.0002186 0.0001472
轨道倾角 97.558° 97.571°
近地点辐角 100.037° 101.623°
升交点赤经 120.831° 117.088°
平近点角 260.111° 68.314°
近地点 547.972km 548.472km
远地点 551.002km 550.512km
周期 95.639分钟 95.639分钟
每日圈数 15.056582 15.056565
详细信息
固有亮度:
5
最大亮度:
2.5
卫星平台:
Starlink v1.5
覆盖范围:
全球
运营商:
太空探索技术公司
运营商所在国:
美国
制造商(研发单位):
太空探索技术公司
制造商所在国:
美国
使用方式:
暂无
卫星简介
星链(Starlink)计划是由太空探索技术公司(SpaceX)提出的一个巨型低轨卫星互联网星座项目,计划在2019年至2024年间在太空搭建由约1.2万颗卫星组成的“星链”网络,其中1584颗将部署在地球上空550千米处的近地轨道,并从2020年开始工作。该卫星仍在工作。
2D轨道图
3D轨道图
轨道高度分析图
轨道倾角分析图
轨道综合分析图
查看轨道综合分析图